Location: Unspecified
(41.8160°N, 0.0000°E)
Time: 12:29:17
(UTC+00:00)

ISS - Visible Passes

Search period start: 17 October 2019 00:00
Search period end: 27 October 2019 00:00
Orbit: 411 x 421 km, 51.6° (Epoch: 17 October)

Date Brightness Start Highest point End Pass type
(mag) Time Alt. Az. Time Alt. Az. Time Alt. Az.
23 Oct -1.3 05:34:48 10° S 05:37:33 24° SE 05:40:19 10° E visible
24 Oct -0.8 04:47:20 10° SSE 04:49:10 14° SE 04:50:58 10° E visible
25 Oct -3.4 05:33:36 10° SW 05:36:56 66° SE 05:40:17 10° ENE visible
26 Oct -2.4 04:46:47 22° SSW 04:48:25 37° SE 04:51:34 10° ENE visible
